Sauk Centre, MN

1:00 AM CDT on August 21, 2017 (GMT -0500)
Sauk Centre

Weather History for KD39 - December, 2013

Change the Weather History Date:

Friday, December 27, 2013

  Actual Average (KGHW) Record (KGHW)
Temperature  
Mean Temperature 28 °F -  
Max Temperature 38 °F 22 °F 46 °F (1959)
Min Temperature 18 °F 4 °F -19 °F (1951)
Degree Days  
Heating Degree Days 37    
Moisture  
Dew Point 26 °F    
Average Humidity 90    
Maximum Humidity 98    
Minimum Humidity 72    
Precipitation  
Precipitation 0.00 in - - ()
Sea Level Pressure  
Sea Level Pressure 29.95 in    
Wind  
Wind Speed 8 mph (SW)    
Max Wind Speed 20 mph    
Max Gust Speed 28 mph    
Visibility 10 miles    
Events      
Averages and records for this station are not official NWS values.
T = Trace of Precipitation, MM = Missing Value Source: NWS Daily Summary

Daily Weather History Graph

Daily Weather History Graph

Search for Another Location

Airport or City:

Trip Planner

Search our weather history database for the weather conditions in past years. The results will help you decide how hot, cold, wet, or windy it might be!

Date:

Astronomy

Dec. 27, 2013 Rise Set
Actual Time 7:59 AM CST 4:42 PM CST
Civil Twilight 7:25 AM CST 5:16 PM CST
Nautical Twilight 6:47 AM CST 5:54 PM CST
Astronomical Twilight 6:11 AM CST 6:30 PM CST
Moon 2:22 AM CST (12/27) 1:02 PM CST (12/27)
Length of Visible Light 9h 50m
Length of Day
8h 42m
Waning Crescent, 28% of the Moon is Illuminated
Dec 27
Waning Crescent
Jan 1
New
Jan 7
First Quarter
Jan 15
Full
Jan 23
Last Quarter

Hourly Weather History & Observations

Time (CST) Temp. Windchill Dew Point Humidity Pressure Visibility Wind Dir Wind Speed Gust Speed Precip Events Conditions
12:12 AM 18.7 °F 13.5 °F 17.6 °F 96% 30.10 in 7.0 mi South 3.5 mph - N/A   Overcast
12:32 AM 21.2 °F - 20.3 °F 96% 30.09 in 7.0 mi Calm Calm - N/A   Overcast
12:53 AM 22.5 °F 14.1 °F 21.4 °F 96% 30.09 in 7.0 mi SSW 6.9 mph - N/A   Overcast
1:12 AM 22.5 °F 15.1 °F 21.4 °F 96% 30.08 in 7.0 mi SSW 5.8 mph - N/A   Overcast
1:33 AM 22.6 °F 14.3 °F 21.7 °F 96% 30.07 in 7.0 mi SSW 6.9 mph - N/A   Overcast
1:52 AM 23.0 °F 17.0 °F 22.1 °F 96% 30.06 in 7.0 mi SSW 4.6 mph - N/A   Overcast
2:12 AM 24.4 °F 16.5 °F 23.7 °F 97% 30.07 in 10.0 mi SSW 6.9 mph - N/A   Overcast
2:33 AM 24.8 °F 16.9 °F 24.3 °F 98% 30.06 in 10.0 mi SSW 6.9 mph - N/A   Overcast
2:52 AM 25.3 °F 18.5 °F 24.6 °F 97% 30.06 in 10.0 mi SW 5.8 mph - N/A   Overcast
3:13 AM 25.5 °F 18.7 °F 24.8 °F 97% 30.06 in 10.0 mi SSW 5.8 mph - N/A   Overcast
3:33 AM 25.7 °F 17.1 °F 25.0 °F 97% 30.04 in 10.0 mi SSW 8.1 mph - N/A   Overcast
3:52 AM 26.1 °F 17.6 °F 25.5 °F 98% 30.03 in 10.0 mi South 8.1 mph - N/A   Overcast
4:13 AM 26.6 °F 17.5 °F 26.1 °F 98% 30.02 in 10.0 mi SSW 9.2 mph - N/A   Overcast
4:32 AM 26.8 °F 17.7 °F 26.2 °F 98% 30.02 in 10.0 mi SSW 9.2 mph - N/A   Mostly Cloudy
4:53 AM 26.1 °F 18.4 °F 25.3 °F 97% 30.02 in 10.0 mi SSW 6.9 mph - N/A   Scattered Clouds
5:12 AM 24.8 °F 17.9 °F 23.9 °F 96% 30.01 in 10.0 mi South 5.8 mph - N/A   Clear
5:32 AM 23.5 °F 14.5 °F 22.6 °F 96% 30.00 in 10.0 mi South 8.1 mph - N/A   Clear
5:53 AM 23.5 °F 13.0 °F 22.6 °F 96% 29.99 in 10.0 mi SSW 10.4 mph - N/A   Clear
6:12 AM 23.9 °F 13.5 °F 23.0 °F 96% 29.97 in 10.0 mi South 10.4 mph - N/A   Clear
6:33 AM 23.2 °F 13.3 °F 22.3 °F 96% 29.96 in 10.0 mi South 9.2 mph - N/A   Clear
6:52 AM 22.6 °F 12.6 °F 21.6 °F 96% 29.95 in 10.0 mi South 9.2 mph - N/A   Clear
7:12 AM 22.8 °F 13.6 °F 21.7 °F 96% 29.94 in 10.0 mi SSE 8.1 mph - N/A   Clear
7:33 AM 22.3 °F 14.9 °F 21.2 °F 96% 29.94 in 10.0 mi SSE 5.8 mph - N/A   Clear
7:52 AM 22.5 °F 13.2 °F 21.2 °F 95% 29.94 in 10.0 mi South 8.1 mph - N/A   Scattered Clouds
8:12 AM 23.2 °F 12.6 °F 22.1 °F 96% 29.92 in 10.0 mi South 10.4 mph - N/A   Scattered Clouds
8:33 AM 25.3 °F 15.3 °F 23.7 °F 94% 29.91 in 10.0 mi South 10.4 mph - N/A   Overcast
8:52 AM 27.1 °F 16.9 °F 23.9 °F 88% 29.91 in 10.0 mi South 11.5 mph - N/A   Overcast
9:13 AM 27.5 °F 19.3 °F 23.9 °F 86% 29.90 in 10.0 mi South 8.1 mph - N/A   Overcast
9:32 AM 29.3 °F 18.6 °F 24.8 °F 83% 29.88 in 10.0 mi South 13.8 mph - N/A   Overcast
9:52 AM 30.4 °F 19.1 °F 25.5 °F 82% 29.88 in 10.0 mi SSW 16.1 mph 20.7 mph N/A   Overcast
10:13 AM 30.6 °F 22.4 °F 25.7 °F 82% 29.89 in 10.0 mi SSW 9.2 mph - N/A   Overcast
10:32 AM 31.8 °F 22.3 °F 25.9 °F 79% 29.89 in 10.0 mi SSW 12.7 mph 18.4 mph N/A   Scattered Clouds
10:53 AM 32.0 °F 22.5 °F 26.2 °F 79% 29.88 in 10.0 mi SW 12.7 mph - N/A   Clear
11:12 AM 32.0 °F 23.0 °F 26.2 °F 79% 29.87 in 10.0 mi SW 11.5 mph 20.7 mph N/A   Clear
11:33 AM 32.2 °F 22.7 °F 26.8 °F 80% 29.86 in 10.0 mi SW 12.7 mph - N/A   Clear
11:52 AM 34.0 °F 24.6 °F 27.7 °F 78% 29.86 in 10.0 mi WSW 13.8 mph - N/A   Clear
12:12 PM 36.3 °F 25.8 °F 28.2 °F 72% 29.86 in 10.0 mi West 19.6 mph 23.0 mph N/A   Clear
12:32 PM 36.5 °F 26.0 °F 28.9 °F 74% 29.85 in 10.0 mi West 19.6 mph 27.6 mph N/A   Clear
12:52 PM 36.5 °F 27.0 °F 29.1 °F 75% 29.86 in 10.0 mi West 16.1 mph 23.0 mph N/A   Clear
1:13 PM 36.1 °F 27.3 °F 29.3 °F 76% 29.86 in 10.0 mi West 13.8 mph - N/A   Clear
1:32 PM 36.5 °F 27.8 °F 29.8 °F 77% 29.85 in 10.0 mi West 13.8 mph - N/A   Clear
1:53 PM 37.6 °F 30.0 °F 30.7 °F 76% 29.85 in 10.0 mi WNW 11.5 mph 17.3 mph N/A   Clear
2:12 PM 38.3 °F 30.9 °F 31.1 °F 75% 29.85 in 10.0 mi WNW 11.5 mph - N/A   Clear
2:32 PM 37.9 °F 29.6 °F 31.1 °F 76% 29.87 in 10.0 mi WNW 13.8 mph 18.4 mph N/A   Clear
2:53 PM 37.6 °F 28.8 °F 31.3 °F 78% 29.87 in 10.0 mi WNW 15.0 mph 20.7 mph N/A   Clear
3:12 PM 36.9 °F 28.7 °F 31.3 °F 80% 29.88 in 10.0 mi WNW 12.7 mph 18.4 mph N/A   Clear
3:33 PM 36.9 °F 29.1 °F 31.5 °F 81% 29.88 in 10.0 mi WNW 11.5 mph - N/A   Clear
3:52 PM 35.8 °F 27.8 °F 31.1 °F 83% 29.89 in 10.0 mi WNW 11.5 mph - N/A   Clear
4:13 PM 35.6 °F 29.2 °F 31.1 °F 84% 29.89 in 10.0 mi West 8.1 mph - N/A   Clear
4:32 PM 34.7 °F 28.1 °F 31.1 °F 87% 29.91 in 10.0 mi WNW 8.1 mph - N/A   Clear
4:52 PM 34.0 °F 27.2 °F 30.9 °F 89% 29.90 in 10.0 mi West 8.1 mph - N/A   Clear
5:13 PM 33.1 °F 26.9 °F 30.4 °F 90% 29.91 in 10.0 mi West 6.9 mph - N/A   Scattered Clouds
5:32 PM 32.0 °F 24.8 °F 29.8 °F 92% 29.92 in 10.0 mi West 8.1 mph - N/A   Scattered Clouds
5:53 PM 31.5 °F 24.2 °F 28.9 °F 90% 29.93 in 10.0 mi West 8.1 mph - N/A   Clear
6:12 PM 31.3 °F 23.9 °F 29.1 °F 92% 29.93 in 10.0 mi West 8.1 mph - N/A   Clear
6:33 PM 30.7 °F 24.9 °F 28.9 °F 93% 29.94 in 10.0 mi West 5.8 mph - N/A   Clear
6:52 PM 30.7 °F 27.3 °F 28.6 °F 92% 29.94 in 10.0 mi West 3.5 mph - N/A   Clear
7:12 PM 29.8 °F 26.3 °F 28.2 °F 94% 29.94 in 10.0 mi West 3.5 mph - N/A   Clear
7:33 PM 28.8 °F 25.0 °F 27.5 °F 95% 29.95 in 10.0 mi WSW 3.5 mph - N/A   Clear
7:52 PM 27.9 °F 24.0 °F 27.0 °F 96% 29.94 in 10.0 mi WSW 3.5 mph - N/A   Clear
8:13 PM 27.5 °F 21.1 °F 26.1 °F 94% 29.95 in 10.0 mi WSW 5.8 mph - N/A   Clear
8:32 PM 25.0 °F 17.1 °F 24.4 °F 98% 29.95 in 7.0 mi West 6.9 mph - N/A   Clear
8:53 PM 25.2 °F 15.7 °F 24.3 °F 96% 29.95 in 10.0 mi West 9.2 mph - N/A   Scattered Clouds
9:12 PM 27.3 °F 19.9 °F 26.4 °F 96% 29.95 in 10.0 mi West 6.9 mph - N/A   Overcast
9:33 PM 28.4 °F 22.2 °F 27.3 °F 96% 29.95 in 10.0 mi West 5.8 mph - N/A   Overcast
9:52 PM 30.0 °F 23.2 °F 28.9 °F 96% 29.96 in 10.0 mi West 6.9 mph - N/A   Overcast
10:12 PM 31.1 °F 23.1 °F 29.7 °F 94% 29.96 in 10.0 mi West 9.2 mph - N/A   Overcast
10:33 PM 31.5 °F 24.9 °F 29.8 °F 94% 29.95 in 10.0 mi West 6.9 mph - N/A   Overcast
10:52 PM 31.5 °F 26.8 °F 30.0 °F 94% 29.94 in 10.0 mi West 4.6 mph - N/A   Overcast
11:13 PM 31.6 °F 27.0 °F 30.2 °F 94% 29.94 in 10.0 mi West 4.6 mph - N/A   Overcast
11:32 PM 31.5 °F 28.1 °F 30.2 °F 95% 29.94 in 10.0 mi WNW 3.5 mph - N/A   Overcast
11:53 PM 31.5 °F - 30.2 °F 95% 29.93 in 10.0 mi Calm Calm - N/A   Overcast